Location: Newark
(48.1500°N, 2.9667°W)
Time: 07:24:23
(UTC+00:00)

A-11 Canister half - Pass Details

Date: 22 January 2020
Orbit: 1524 x 1684 km, 47.3° (Epoch: 20 February)

Event Time Altitude Azimuth Distance (km) Brightness Sun altitude
Rises 19:19:56 0° 240° (WSW) 4,679 12.6 -23.8°
Reaches altitude 10° 19:22:58 10° 237° (WSW) 3,709 11.8 -24.3°
Maximum altitude 19:32:14 69° 157° (SSE) 1,664 9.0 -25.9°
Enters shadow 19:35:25 46° 93° (E) 2,035 9.1 -26.4°
Drops below altitude 10° 19:41:49 10° 78° (ENE) 3,829 - -27.5°
Sets 19:45:00 0° 76° (ENE) 4,838 - -28.0°
